Weather reports worldwide

Advertisment
Ouessant, France (7100): temperature & dewpoint: 10.08.2018 18:00:00 - 16.08.2018 18:00:00 (CEST)Ouessant, France (7100): wind speed & gusts: 10.08.2018 18:00:00 - 16.08.2018 18:00:00 (CEST)Ouessant, France (7100): wind direction: 10.08.2018 18:00:00 - 16.08.2018 18:00:00 (CEST)Ouessant, France (7100): reduced air pressure: 10.08.2018 18:00:00 - 16.08.2018 18:00:00 (CEST)Ouessant, France (7100): visibility: 10.08.2018 18:00:00 - 16.08.2018 18:00:00 (CEST)Ouessant, France (7100): precipitation: 10.08.2018 18:00:00 - 16.08.2018 18:00:00 (CEST)
Date & Time tt [°C] td [°C] ff [km/h] ff [kn] fx [km/h] fx [kn] dd ppp [hPa] vv [km] rr [mm]
16.08.2018 18:00:00 17,8 12,3 24 13 39 21 NNW 1018,2 - 0,0
16.08.2018 17:00:00 18,4 12,8 23 12 36 19 NW 1018,1 20 0,0
16.08.2018 16:00:00 18,7 12,2 22 12 36 20 NNW 1017,6 - 0,0
16.08.2018 15:00:00 16,9 11,8 26 14 39 21 NNW 1017,5 - 0,0
16.08.2018 14:00:00 17,3 13,0 28 15 44 24 NW 1017,2 11 0,0
16.08.2018 13:00:00 16,3 14,0 29 15 38 21 NW 1017,0 - 0,0
16.08.2018 12:00:00 15,6 14,8 20 11 42 23 NW 1016,8 - 0,6
16.08.2018 11:00:00 16,5 16,2 21 11 31 17 WNW 1016,4 8 0,0
16.08.2018 10:00:00 17,0 16,8 22 12 42 23 W 1015,9 - 0,4
16.08.2018 09:00:00 16,8 16,2 27 15 41 22 SW 1015,6 - 0,0
16.08.2018 08:00:00 16,6 16,0 27 15 40 22 SW 1015,7 10 0,0
16.08.2018 07:00:00 16,4 15,9 23 12 32 17 SW 1016,0 - 0,0
16.08.2018 06:00:00 16,1 15,9 19 10 27 14 SW 1016,3 - 0,0
16.08.2018 05:00:00 15,6 15,4 18 10 25 14 SSW 1016,3 - 0,0
16.08.2018 04:00:00 15,9 15,6 17 9 28 15 SW 1017,2 - 0,0
16.08.2018 03:00:00 16,1 15,8 19 11 29 15 SSW 1017,7 - 0,0
16.08.2018 02:00:00 16,5 16,0 19 10 26 14 SSW 1018,1 - 0,2
16.08.2018 01:00:00 16,2 15,4 16 9 25 13 SW 1018,6 - 0,0
16.08.2018 00:00:00 16,3 15,7 17 9 22 12 SSW 1018,7 - 0,0
15.08.2018 23:00:00 16,5 16,0 16 9 23 12 SW 1019,2 15 0,0
15.08.2018 22:00:00 16,6 16,1 14 8 26 14 SW 1019,5 - 0,0
15.08.2018 21:00:00 16,6 16,0 18 10 24 13 SSW 1019,3 - 0,0
15.08.2018 20:00:00 17,0 16,2 16 9 23 13 SW 1019,6 - 0,0
15.08.2018 19:00:00 17,2 16,6 18 10 25 13 SSW 1019,7 - 0,0
15.08.2018 18:00:00 17,7 17,2 20 11 30 16 SSW 1020,1 - 0,0
15.08.2018 17:00:00 18,7 17,7 22 12 29 16 SSW 1020,4 5 0,0
15.08.2018 16:00:00 18,4 17,6 18 10 29 16 SW 1020,9 - 0,0
15.08.2018 15:00:00 18,4 18,1 21 11 28 15 SW 1021,3 - 0,0
15.08.2018 14:00:00 17,9 17,6 19 11 28 15 SW 1021,7 - 0,8
15.08.2018 13:00:00 17,8 17,3 16 9 27 15 W 1021,8 - 0,0
15.08.2018 12:00:00 18,1 17,8 19 11 28 15 W 1021,8 - 0,2
15.08.2018 11:00:00 17,7 17,4 9 5 18 10 SW 1021,8 3,0 0,0
15.08.2018 10:00:00 17,7 17,5 14 7 21 11 W 1021,7 - 0,2
15.08.2018 09:00:00 16,8 16,6 16 8 29 16 W 1021,6 - 0,0
15.08.2018 08:00:00 16,7 16,4 17 9 26 14 WSW 1021,6 4,0 0,4
15.08.2018 07:00:00 16,8 16,2 17 9 27 15 WSW 1021,5 - 0,0
15.08.2018 06:00:00 17,0 16,4 16 9 26 14 WSW 1021,7 - 0,0
15.08.2018 05:00:00 17,0 16,7 18 10 24 13 WSW 1021,9 8 0,0
15.08.2018 04:00:00 17,0 16,7 20 11 29 16 WSW 1021,9 - 0,0
15.08.2018 03:00:00 17,0 16,7 17 9 25 14 WSW 1022,3 - 0,0
15.08.2018 02:00:00 16,8 16,3 17 9 27 14 W 1022,5 8 0,0
15.08.2018 01:00:00 17,1 16,6 19 10 27 14 W 1022,6 - 0,0
15.08.2018 00:00:00 17,3 16,5 17 9 23 12 W 1022,8 - 0,0
14.08.2018 23:00:00 16,6 16,1 16 9 21 11 WSW 1023,1 8 0,0
14.08.2018 22:00:00 16,0 15,2 15 8 16 9 W 1022,8 - 0,0
14.08.2018 21:00:00 18,0 16,7 12 6 19 10 W 1022,2 - 0,0
14.08.2018 20:00:00 18,8 17,3 16 9 22 12 W 1022,0 8 0,0
14.08.2018 19:00:00 18,4 17,7 13 7 27 15 WNW 1022,1 - 0,0
14.08.2018 18:00:00 18,6 18,1 15 8 21 11 W 1022,3 - 0,2
14.08.2018 17:00:00 18,4 17,4 15 8 21 12 WNW 1022,4 - 0,0
14.08.2018 16:00:00 20,2 18,7 16 9 26 14 NNW 1022,2 - 0,0
14.08.2018 15:00:00 18,8 18,3 13 7 26 14 NW 1022,1 - 0,0
14.08.2018 14:00:00 18,7 18,5 17 9 27 15 NW 1021,8 0,3 0,0
14.08.2018 13:00:00 18,4 18,2 16 9 26 14 NW 1021,4 - 0,0
14.08.2018 12:00:00 18,3 18,1 16 9 24 13 WNW 1021,0 - 0,0
14.08.2018 11:00:00 18,2 18,0 16 8 23 13 WNW 1020,5 0,2 0,0
14.08.2018 10:00:00 17,5 17,3 16 8 21 12 NW 1020,2 - 0,0
14.08.2018 09:00:00 17,2 17,0 19 10 26 14 WNW 1019,7 - 0,0
14.08.2018 08:00:00 16,6 16,4 13 7 19 10 W 1019,5 0,1 0,0
14.08.2018 07:00:00 16,1 15,8 13 7 18 10 W 1018,9 - 0,0
14.08.2018 06:00:00 15,6 15,0 15 8 23 12 WNW 1018,6 - 0,0
14.08.2018 05:00:00 15,6 14,8 18 10 35 19 NW 1018,5 18 0,0
14.08.2018 04:00:00 15,7 14,2 23 12 32 18 NW 1018,2 - 0,0
14.08.2018 03:00:00 16,0 14,2 20 11 35 19 NW 1018,1 - 0,0
14.08.2018 02:00:00 16,2 14,4 25 14 35 19 NW 1017,8 20 0,0
14.08.2018 01:00:00 16,6 14,2 23 12 32 17 NW 1017,4 - 0,0
14.08.2018 00:00:00 16,6 13,9 21 11 31 17 NW 1017,0 - 0,0
13.08.2018 23:00:00 16,6 14,2 26 14 34 18 NNW 1016,5 20 0,0
13.08.2018 22:00:00 16,8 13,7 23 12 33 18 NW 1015,8 - 0,0
13.08.2018 21:00:00 16,6 14,4 24 13 36 19 NW 1015,2 - 0,0
13.08.2018 20:00:00 17,1 14,9 26 14 35 19 NW 1014,6 20 0,0
13.08.2018 19:00:00 18,3 15,2 23 12 31 17 NW 1014,4 - 0,0
13.08.2018 18:00:00 19,2 16,1 19 10 27 15 NW 1014,2 - 0,0
13.08.2018 17:00:00 19,4 16,4 16 9 24 13 NW 1013,7 25 0,0
13.08.2018 16:00:00 20,3 17,1 18 10 27 14 NNW 1013,3 - 0,0
13.08.2018 15:00:00 18,9 16,3 22 12 35 19 NNW 1013,1 - 0,0
13.08.2018 14:00:00 19,0 16,6 16 8 30 16 NW 1012,6 18 0,0
13.08.2018 13:00:00 19,3 17,1 16 9 24 13 WNW 1012,3 - 0,0
13.08.2018 12:00:00 18,4 16,4 15 8 22 12 WNW 1011,8 - 0,2
13.08.2018 11:00:00 18,7 17,5 13 7 18 10 WNW 1011,0 16 0,0
13.08.2018 10:00:00 17,1 16,9 13 7 23 13 WNW 1010,7 - 0,0
13.08.2018 09:00:00 16,0 15,8 12 7 16 9 W 1010,4 - 0,0
13.08.2018 08:00:00 16,1 15,9 11 6 16 9 WNW 1009,6 0,1 0,2
13.08.2018 07:00:00 15,5 15,3 10 5 16 9 WNW 1009,1 - 0,6
13.08.2018 06:00:00 15,6 15,4 13 7 27 15 W 1009,0 - 0,6
13.08.2018 05:00:00 15,4 15,1 19 11 28 15 WNW 1009,0 10 0,4
13.08.2018 04:00:00 16,1 15,8 16 9 25 14 W 1008,8 - 0,0
13.08.2018 03:00:00 15,9 15,4 17 9 26 14 W 1008,8 - 0,0
13.08.2018 02:00:00 15,9 15,6 19 10 33 18 W 1008,9 10 0,2
13.08.2018 01:00:00 15,5 15,0 18 10 30 16 W 1008,9 - 0,0
13.08.2018 00:00:00 15,7 14,9 24 13 33 18 W 1008,8 - 0,0
12.08.2018 23:00:00 15,6 15,1 23 12 32 17 W 1008,7 20 0,0
12.08.2018 22:00:00 15,9 15,3 21 11 39 21 W 1008,4 - 0,2
12.08.2018 21:00:00 16,1 15,1 26 14 37 20 WSW 1008,1 - 0,2
12.08.2018 20:00:00 17,4 14,7 22 12 33 18 WSW 1008,3 20 0,0
12.08.2018 19:00:00 18,6 15,8 27 15 37 20 W 1008,3 - 0,0
12.08.2018 18:00:00 17,0 16,2 19 11 45 24 WSW 1008,7 - 0,8
12.08.2018 17:00:00 20,5 16,1 29 15 41 22 SW 1008,5 20 0,0
12.08.2018 16:00:00 20,4 15,8 29 16 41 22 SW 1008,8 - 0,0
12.08.2018 15:00:00 20,7 17,5 25 13 35 19 SW 1009,1 - 0,0
12.08.2018 14:00:00 17,9 17,4 16 9 28 15 SW 1009,5 10 0,0
12.08.2018 13:00:00 17,7 17,5 22 12 31 17 SSW 1009,4 - 0,0
12.08.2018 12:00:00 17,3 17,1 17 9 24 13 SSW 1009,7 - 0,0
12.08.2018 11:00:00 18,3 18,1 15 8 25 13 SSW 1009,4 8 0,0
12.08.2018 10:00:00 16,5 16,3 18 10 30 16 SW 1009,8 - 9,0
12.08.2018 09:00:00 16,8 16,6 18 10 50 27 SW 1010,1 - 3,6
12.08.2018 08:00:00 16,4 16,2 39 21 54 29 S 1009,9 0,1 1,6
12.08.2018 07:00:00 16,2 16,0 35 19 58 32 S 1010,4 - 5,7
12.08.2018 06:00:00 16,4 16,2 36 19 59 32 S 1011,0 - 1,0
12.08.2018 05:00:00 16,4 16,2 41 22 60 33 S 1011,9 10 6,1
12.08.2018 04:00:00 16,1 15,8 33 18 53 29 S 1013,2 - 7,3
12.08.2018 03:00:00 16,1 15,6 36 20 63 34 S 1014,0 - 0,4
12.08.2018 02:00:00 16,1 15,6 44 24 57 31 S 1014,4 15 0,4
12.08.2018 01:00:00 16,1 15,5 39 21 54 29 S 1015,7 - 0,0
12.08.2018 00:00:00 16,3 15,2 38 20 55 30 S 1016,5 - 0,0
11.08.2018 23:00:00 16,2 15,1 37 20 52 28 S 1017,2 15 0,0
11.08.2018 22:00:00 16,2 14,9 35 19 52 28 S 1017,6 - 0,0
11.08.2018 21:00:00 16,3 14,8 35 19 53 29 S 1018,0 - 0,0
11.08.2018 20:00:00 17,4 15,4 35 19 53 29 S 1018,8 15 0,0
11.08.2018 19:00:00 17,4 15,2 35 19 55 30 S 1019,1 - 0,0
11.08.2018 18:00:00 18,5 15,6 33 18 52 28 S 1019,6 - 0,0
11.08.2018 17:00:00 18,8 15,1 36 19 62 33 S 1020,3 18 0,0
11.08.2018 16:00:00 19,7 15,3 35 19 56 30 S 1021,1 - 0,0
11.08.2018 15:00:00 19,7 15,3 32 18 54 29 S 1021,8 - 0,0
11.08.2018 14:00:00 19,3 15,0 32 17 49 27 S 1021,6 15 0,0
11.08.2018 13:00:00 18,0 15,3 34 19 49 26 S 1022,3 - 0,0
11.08.2018 12:00:00 17,5 15,5 31 17 46 25 S 1022,4 - 0,0
11.08.2018 11:00:00 16,5 15,2 31 17 45 24 S 1022,4 15 0,0
11.08.2018 10:00:00 16,4 15,4 24 13 34 18 S 1022,7 - 0,0
11.08.2018 09:00:00 15,9 15,3 24 13 35 19 S 1022,6 - 0,0
11.08.2018 08:00:00 15,6 15,1 23 13 34 18 S 1022,9 15 0,0
11.08.2018 07:00:00 15,2 14,7 21 11 27 15 S 1022,8 - 0,0
11.08.2018 06:00:00 15,3 14,8 22 12 27 15 SSW 1023,0 - 0,0
11.08.2018 05:00:00 15,3 14,8 19 10 24 13 S 1023,3 15 0,0
11.08.2018 04:00:00 15,2 14,7 17 9 21 11 SSW 1023,6 - 0,0
11.08.2018 03:00:00 15,3 14,8 15 8 23 12 SW 1023,8 - 0,0
11.08.2018 02:00:00 15,2 14,6 14 7 16 9 SW 1024,3 15 0,4
11.08.2018 01:00:00 15,8 14,8 15 8 22 12 WSW 1024,5 - 1,0
11.08.2018 00:00:00 16,4 14,4 15 8 25 14 WSW 1024,3 - 0,0
10.08.2018 23:00:00 16,4 14,6 15 8 25 13 WSW 1024,1 16 0,0
10.08.2018 22:00:00 16,3 14,5 20 11 26 14 WSW 1023,8 - 0,0
10.08.2018 21:00:00 17,0 14,5 19 10 34 18 W 1023,4 - 0,0
10.08.2018 20:00:00 18,6 14,1 23 13 36 20 WSW 1023,2 - 0,0
10.08.2018 19:00:00 18,7 14,4 23 12 37 20 W 1023,1 - 0,0
10.08.2018 18:00:00 19,8 14,2 27 15 42 23 W 1022,9 - 0,0

tt = temperature
td = dewpoint
ff = wind speed
fx = gusts
dd = wind direction
ppp = reduced air pressure
vv = visibility
rr = precipitation

Next stations